TA2NC-13 Weather Reports


Display with metric or nautical units.
time (UTC)temp
F
wind
direction
speed
MPH
gust
MPH
rain 1hr
in
rain 24hr
in
rain mn
in
humidity
%
barometer
mb
20260509112000 64 205 1.0 7.0 0.00 0.00 0.01 50 1020.0
20260509111000 66 193 3.0 7.0 0.00 0.00 0.01 49 1020.0
20260509110000 66 169 1.0 6.0 0.00 0.00 0.01 48 1020.0
20260509105000 67 186 3.0 8.0 0.00 0.00 0.01 51 1020.0
20260509104000 67 163 2.0 7.0 0.00 0.00 0.01 47 1020.0
20260509103000 67 99 4.0 6.0 0.00 0.00 0.01 46 1020.0
20260509102000 66 183 1.0 3.0 0.00 0.00 0.01 47 1020.0
20260509101000 66 156 1.0 4.0 0.00 0.00 0.01 46 1020.0
20260509100000 67 126 7.0 9.0 0.00 0.00 0.01 45 1020.0
20260509095000 67 174 0.0 4.0 0.00 0.00 0.01 44 1020.0
20260509094000 68 9 3.0 7.0 0.00 0.00 0.01 42 1020.0
20260509093000 68 14 3.0 5.0 0.00 0.00 0.01 44 1020.0
20260509092000 68 79 3.0 7.0 0.00 0.00 0.01 42 1020.0
20260509091000 68 30 3.0 7.0 0.00 0.00 0.01 45 1020.0
20260509090000 67 353 4.0 7.0 0.00 0.00 0.01 46 1020.0
20260509085000 65 109 2.0 3.0 0.01 0.00 0.01 50 1020.0
20260509084000 63 192 1.0 3.0 0.00 0.00 0.00 50 1020.0
20260509083000 62 120 0.0 3.0 0.00 0.00 0.00 50 1020.0
20260509082000 61 336 2.0 3.0 0.00 0.00 0.00 50 1020.0
20260509081000 62 182 0.0 4.0 0.00 0.00 0.00 49 1020.0
20260509080000 62 65 3.0 6.0 0.00 0.00 0.00 48 1020.0
20260509075000 62 84 3.0 8.0 0.00 0.00 0.00 47 1020.0
20260509074000 62 76 5.0 7.0 0.00 0.00 0.00 51 1020.0
20260509073000 62 154 0.0 5.0 0.00 0.00 0.00 52 1020.0
20260509072000 61 87 1.0 3.0 0.00 0.00 0.00 56 1020.0
20260509071000 60 112 3.0 5.0 0.00 0.00 0.00 60 1020.0
20260509070000 58 32 0.0 0.0 0.00 0.00 0.00 63 1020.0
20260509065000 58 14 2.0 4.0 0.00 0.00 0.00 66 1020.0
20260509064000 58 0 0.0 2.0 0.00 0.00 0.00 65 1020.0
20260509063000 58 316 2.0 4.0 0.00 0.00 0.00 65 1020.0
20260509062000 58 262 2.0 3.0 0.00 0.00 0.00 65 1020.0
20260509061001 58 286 3.0 4.0 0.00 0.00 0.00 65 1020.0
20260509060000 58 178 0.0 1.0 0.00 0.00 0.00 66 1020.0
20260509055000 57 188 0.0 1.0 0.00 0.00 0.00 66 1020.0
20260509054000 57 189 0.0 3.0 0.00 0.00 0.00 65 1020.0
20260509053000 57 255 0.0 0.0 0.00 0.00 0.00 69 1020.0
20260509052000 56 129 0.0 0.0 0.00 0.00 0.00 68 1020.0
20260509051000 56 120 0.0 0.0 0.00 0.00 0.00 68 1020.0
20260509050000 56 149 1.0 3.0 0.00 0.00 0.00 67 1020.0
20260509045000 56 183 0.0 1.0 0.00 0.00 0.00 67 1020.0
20260509044000 56 162 1.0 3.0 0.00 0.00 0.00 68 1020.0
20260509043000 55 150 0.0 1.0 0.00 0.00 0.00 68 1020.0
20260509042000 55 202 0.0 3.0 0.00 0.00 0.00 67 1020.0
20260509041000 55 15 3.0 5.0 0.00 0.00 0.00 67 1020.0
20260509040000 55 236 0.0 0.0 0.00 0.00 0.00 68 1020.0
20260509035000 55 132 0.0 0.0 0.00 0.00 0.00 68 1020.0
20260509034000 55 207 0.0 0.0 0.00 0.00 0.00 67 1020.0
20260509033000 55 97 0.0 0.0 0.00 0.00 0.00 68 1020.0
20260509032000 54 183 0.0 0.0 0.00 0.00 0.00 67 1020.0
20260509031000 54 150 0.0 3.0 0.00 0.00 0.00 68 1020.0
20260509030000 54 355 0.0 0.0 0.00 0.00 0.00 67 1020.0
20260509025000 53 134 0.0 0.0 0.00 0.00 0.00 67 1020.0
20260509024000 53 128 0.0 2.0 0.00 0.00 0.00 68 1020.0
20260509023000 53 98 0.0 3.0 0.00 0.00 0.00 69 1020.0
20260509022000 53 5 2.0 5.0 0.00 0.00 0.00 67 1020.0
20260509021000 53 111 0.0 0.0 0.00 0.00 0.00 70 1020.0
20260509020000 53 318 1.0 3.0 0.00 0.00 0.00 69 1020.0
20260509015000 53 139 0.0 3.0 0.00 0.00 0.00 68 1020.0
20260509014000 53 358 2.0 2.0 0.00 0.00 0.00 66 1020.0
20260509013000 53 158 0.0 0.0 0.00 0.00 0.00 69 1020.0
20260509012000 53 184 0.0 0.0 0.00 0.00 0.00 68 1020.0
20260509011000 53 165 0.0 0.0 0.00 0.00 0.00 68 1020.0
20260509010000 53 139 0.0 0.0 0.00 0.00 0.00 67 1020.0
20260509005000 53 140 0.0 0.0 0.00 0.00 0.00 67 1020.0
20260509004000 53 159 0.0 0.0 0.00 0.00 0.00 68 1020.0
20260509003000 53 146 0.0 2.0 0.00 0.00 0.00 67 1020.0
20260509002000 53 172 0.0 1.0 0.00 0.00 0.00 67 1020.0
20260509001000 53 195 0.0 0.0 0.00 0.00 0.00 67 1020.0
20260509000000 53 331 0.0 1.0 0.00 0.00 0.00 67 1020.0
20260508235000 53 268 0.0 2.0 0.00 0.00 0.00 66 1020.0
20260508234000 53 316 0.0 2.0 0.00 0.00 0.00 66 1020.0
20260508233000 52 347 4.0 6.0 0.00 0.00 0.00 66 1020.0
20260508232000 52 18 2.0 3.0 0.00 0.00 0.00 68 1020.0
20260508231000 51 227 0.0 3.0 0.00 0.00 0.00 68 1020.0
20260508230000 51 54 0.0 1.0 0.00 0.00 0.00 67 1020.0
20260508225000 52 313 0.0 5.0 0.00 0.00 0.00 66 1021.0
20260508224000 51 17 3.0 4.0 0.00 0.00 0.00 67 1021.0
20260508223000 51 145 1.0 3.0 0.00 0.00 0.00 68 1021.0
20260508222000 51 307 1.0 2.0 0.00 0.00 0.00 68 1021.0
20260508221000 52 321 0.0 1.0 0.00 0.00 0.00 67 1021.0
20260508220000 52 232 0.0 0.0 0.00 0.00 0.00 66 1021.0
20260508215000 53 247 0.0 2.0 0.00 0.00 0.00 65 1021.0
20260508214000 53 332 0.0 1.0 0.00 0.00 0.00 65 1021.0
20260508213000 54 14 0.0 2.0 0.00 0.00 0.00 64 1021.0
20260508212000 54 138 2.0 3.0 0.00 0.00 0.00 63 1021.0
20260508211000 54 338 2.0 3.0 0.00 0.00 0.00 63 1021.0
20260508210000 55 143 0.0 0.0 0.00 0.00 0.00 63 1021.0
20260508205000 55 4 2.0 4.0 0.00 0.00 0.00 62 1021.0
20260508204000 55 333 0.0 1.0 0.00 0.00 0.00 62 1021.0
20260508203000 55 79 2.0 3.0 0.00 0.00 0.00 62 1021.0
20260508202000 55 10 5.0 7.0 0.00 0.00 0.00 62 1021.0
20260508201000 54 9 2.0 2.0 0.00 0.00 0.00 64 1021.0
20260508200000 54 183 0.0 0.0 0.00 0.00 0.00 63 1021.0
20260508195000 54 180 0.0 0.0 0.00 0.00 0.00 63 1021.0
20260508194000 54 182 0.0 1.0 0.00 0.00 0.00 63 1021.0
20260508193000 54 227 0.0 0.0 0.00 0.00 0.00 63 1021.0
20260508192000 55 12 0.0 4.0 0.00 0.00 0.00 61 1021.0
20260508191000 55 321 0.0 2.0 0.00 0.00 0.00 62 1020.0
20260508190000 55 42 1.0 1.0 0.00 0.00 0.00 61 1020.0
20260508185000 55 333 2.0 2.0 0.00 0.00 0.00 60 1020.0
20260508184001 55 4 0.0 0.0 0.00 0.00 0.00 61 1020.0
20260508183000 56 345 0.0 2.0 0.00 0.00 0.00 59 1020.0
20260508182000 56 331 0.0 0.0 0.00 0.00 0.00 61 1020.0
20260508181000 56 342 0.0 0.0 0.00 0.00 0.00 59 1021.0
20260508180000 57 342 0.0 0.0 0.00 0.00 0.00 58 1021.0
20260508175000 57 339 0.0 1.0 0.00 0.00 0.00 57 1021.0
20260508174000 57 355 1.0 1.0 0.00 0.00 0.00 57 1021.0
20260508173000 58 0 0.0 0.0 0.00 0.00 0.00 57 1021.0
20260508172000 59 0 0.0 0.0 0.00 0.00 0.00 55 1021.0
20260508171000 59 0 0.0 0.0 0.00 0.00 0.00 53 1021.0
20260508170000 60 0 0.0 0.0 0.00 0.00 0.00 50 1021.0
20260508165000 62 0 0.0 0.0 0.00 0.00 0.00 48 1021.0
20260508164000 63 0 0.0 0.0 0.00 0.00 0.00 46 1021.0
20260508163000 63 0 0.0 0.0 0.00 0.00 0.00 43 1021.0
20260508162000 64 0 0.0 0.0 0.00 0.00 0.00 42 1021.0
20260508161000 65 0 0.0 0.0 0.00 0.00 0.00 42 1021.0
20260508160000 66 0 0.0 0.0 0.00 0.00 0.00 41 1021.0
20260508155000 66 0 0.0 0.0 0.00 0.00 0.00 39 1021.0
20260508154000 67 0 0.0 0.0 0.00 0.00 0.00 39 1021.0
20260508153000 68 0 0.0 0.0 0.00 0.00 0.00 37 1021.0
20260508152000 68 0 0.0 0.0 0.00 0.00 0.00 38 1021.0
20260508151000 68 0 0.0 0.0 0.00 0.00 0.00 38 1021.0
20260508150000 68 0 0.0 0.0 0.00 0.00 0.00 38 1021.0
20260508145000 68 0 0.0 0.0 0.00 0.00 0.00 38 1021.0
20260508144000 68 0 0.0 0.0 0.00 0.00 0.00 39 1021.0
20260508143000 69 0 0.0 0.0 0.00 0.00 0.00 39 1021.0
20260508142000 69 0 0.0 0.0 0.00 0.00 0.00 39 1021.0
20260508141000 70 0 0.0 0.0 0.00 0.00 0.00 39 1021.0
20260508140000 70 0 0.0 0.0 0.00 0.00 0.00 39 1021.0
20260508135000 71 0 0.0 0.0 0.00 0.00 0.00 38 1021.0
20260508134000 71 0 0.0 0.0 0.00 0.00 0.00 37 1021.0
20260508133000 72 0 0.0 0.0 0.00 0.00 0.00 37 1021.0
20260508132000 72 0 0.0 0.0 0.00 0.00 0.00 37 1021.0
20260508131000 72 0 0.0 0.0 0.00 0.00 0.00 34 1021.0
20260508130000 72 0 0.0 0.0 0.00 0.00 0.00 33 1021.0
20260508125000 71 0 0.0 0.0 0.00 0.00 0.00 34 1021.0
20260508124000 71 0 0.0 0.0 0.00 0.00 0.00 30 1021.0
20260508123000 71 0 0.0 0.0 0.00 0.00 0.00 27 1021.0
20260508122000 71 0 0.0 0.0 0.00 0.00 0.00 30 1021.0
20260508121000 71 246 4.0 6.0 0.00 0.00 0.00 31 1021.0
20260508120000 71 216 3.0 7.0 0.00 0.00 0.00 30 1021.0
20260508115000 71 176 3.0 6.0 0.00 0.00 0.00 29 1021.0
20260508114623 70 224 2.0 6.0 0.00 0.00 0.00 31 1021.0
20260508114000 70 357 2.0 5.0 0.00 0.00 0.00 31 1021.0
20260508113000 71 196 4.0 6.0 0.00 0.00 0.00 30 1021.0